This is the latest recevied weather packets stored in our database for station/object E22ZMG-2. If no packets are shown the sender has not sent any weather packets the latest 10 day(s).
| Time | Temp. | Humidity | Pressure | Rain* | Wind** | Luminosity | Snow |
|---|---|---|---|---|---|---|---|
| 1778229090 | 32.22° C | 51% | 924 hPa | - | - | 0 W/m² | - |
| 1778228466 | 32.22° C | 51% | 924 hPa | - | - | 0 W/m² | - |
| 1778227842 | 32.22° C | 52% | 925 hPa | - | - | 0 W/m² | - |
| 1778227217 | 31.67° C | 52% | 925 hPa | - | - | 0 W/m² | - |
| 1778226594 | 32.22° C | 52% | 925 hPa | - | - | 0 W/m² | - |
| 1778225969 | 32.22° C | 52% | 925 hPa | - | - | 0 W/m² | - |
| 1778225346 | 31.67° C | 52% | 925 hPa | - | - | 0 W/m² | - |
| 1778224642 | 31.67° C | 52% | 926 hPa | - | - | 0 W/m² | - |
| 1778224017 | 31.67° C | 53% | 926 hPa | - | - | 0 W/m² | - |
| 1778223393 | 31.67° C | 52% | 926 hPa | - | - | 0 W/m² | - |
| 1778222769 | 31.11° C | 50% | 926 hPa | - | - | 0 W/m² | - |
| 1778222145 | 31.67° C | 51% | 926 hPa | - | - | 0 W/m² | - |
| 1778221521 | 31.11° C | 55% | 927 hPa | - | - | 0 W/m² | - |
| 1778220897 | 31.11° C | 52% | 927 hPa | - | - | 0 W/m² | - |
| 1778220273 | 30.56° C | 59% | 927 hPa | - | - | 0 W/m² | - |
| 1778219649 | 30.56° C | 59% | 927 hPa | - | - | 0 W/m² | - |
| 1778219025 | 30.56° C | 60% | 927 hPa | - | - | 0 W/m² | - |
| 1778218401 | 30° C | 63% | 928 hPa | - | - | 0 W/m² | - |
| 1778217777 | 29.44° C | 62% | 928 hPa | - | - | 0 W/m² | - |
| 1778217153 | 29.44° C | 63% | 928 hPa | - | - | 0 W/m² | - |
| 1778216529 | 29.44° C | 62% | 928 hPa | - | - | 0 W/m² | - |
| 1778215905 | 29.44° C | 65% | 928 hPa | - | - | 0 W/m² | - |
| 1778215280 | 28.89° C | 66% | 928 hPa | - | - | 0 W/m² | - |
| 1778214914 | 28.89° C | 69% | 929 hPa | - | - | 0 W/m² | - |
| 1778214290 | 28.33° C | 69% | 929 hPa | - | - | 0 W/m² | - |
* Rain since midnight (hover to see other rain measurements)
** Current wind speed in m/s (hover to see current wind gust speed)